TimeCST,TemperatureF,Dew PointF,Humidity,Sea Level PressureIn,VisibilityMPH,Wind Direction,Wind SpeedMPH,Gust SpeedMPH,PrecipitationIn,Events,Conditions,WindDirDegrees,DateUTC
12:54 AM,23.0,6.1,48,30.27,10.0,East,9.2,-,N/A,,Overcast,100,2013-02-21 06:54:00
1:54 AM,23.0,7.0,50,30.23,10.0,East,9.2,-,N/A,,Overcast,90,2013-02-21 07:54:00
2:54 AM,21.9,7.0,53,30.17,10.0,ENE,12.7,20.7,N/A,,Overcast,70,2013-02-21 08:54:00
3:54 AM,21.9,7.0,53,30.17,10.0,East,11.5,20.7,N/A,,Overcast,90,2013-02-21 09:54:00
4:54 AM,21.9,7.0,53,30.12,10.0,East,15.0,-,N/A,,Overcast,80,2013-02-21 10:54:00
5:54 AM,21.9,8.1,55,30.14,10.0,East,12.7,-,N/A,,Overcast,80,2013-02-21 11:54:00
6:54 AM,21.9,8.1,55,30.13,10.0,East,15.0,-,N/A,,Overcast,80,2013-02-21 12:54:00
7:54 AM,21.9,8.1,55,30.12,10.0,East,13.8,-,N/A,,Overcast,80,2013-02-21 13:54:00
8:54 AM,21.9,9.0,58,30.14,10.0,East,12.7,-,N/A,,Overcast,80,2013-02-21 14:54:00
9:54 AM,21.9,12.0,66,30.10,2.5,East,19.6,-,0.00,Snow,Light Snow,80,2013-02-21 15:54:00
10:11 AM,21.2,12.2,68,30.04,1.8,ENE,18.4,26.5,0.00,Snow,Light Snow,70,2013-02-21 16:11:00
10:54 AM,21.0,16.0,81,30.07,0.8,ENE,17.3,-,0.00,Snow,Light Snow,70,2013-02-21 16:54:00
11:07 AM,21.2,17.6,86,30.01,0.5,ENE,17.3,25.3,0.01,Fog-Snow,Snow,60,2013-02-21 17:07:00
11:54 AM,21.9,18.0,85,30.03,0.5,NE,12.7,-,0.03,Fog-Snow,Snow,50,2013-02-21 17:54:00
12:22 PM,21.2,19.4,93,29.97,0.5,NE,13.8,-,0.02,Fog-Snow,Snow,40,2013-02-21 18:22:00
12:51 PM,21.2,19.4,93,29.96,0.5,NE,16.1,-,0.04,Fog-Snow,Snow,50,2013-02-21 18:51:00
12:54 PM,21.9,19.0,89,30.01,0.5,NE,17.3,23.0,0.05,Fog-Snow,Snow,50,2013-02-21 18:54:00
1:01 PM,21.2,19.4,93,29.95,0.2,NE,13.8,23.0,0.00,Fog-Snow,Snow,50,2013-02-21 19:01:00
1:09 PM,21.2,19.4,93,29.95,0.2,NNE,17.3,23.0,0.05,Fog-Snow,Snow,30,2013-02-21 19:09:00
1:24 PM,21.2,19.4,93,29.94,0.2,NE,17.3,-,0.07,Fog-Snow,Light Snow,40,2013-02-21 19:24:00
1:54 PM,21.9,19.0,89,29.97,0.2,NE,18.4,-,0.09,Fog-Snow,Light Snow,40,2013-02-21 19:54:00
2:37 PM,21.2,19.4,93,29.90,0.5,NE,19.6,26.5,0.03,Fog,Light Freezing Fog,50,2013-02-21 20:37:00
2:54 PM,21.9,18.0,85,29.95,0.5,NE,19.6,-,0.05,Fog-Snow,Light Snow,50,2013-02-21 20:54:00
3:20 PM,21.2,17.6,86,29.90,0.5,NE,20.7,28.8,0.01,Fog-Snow,Light Snow,50,2013-02-21 21:20:00
3:49 PM,21.2,17.6,86,29.89,1.0,NE,17.3,26.5,0.04,Snow,Light Snow,50,2013-02-21 21:49:00
3:54 PM,21.9,18.0,85,29.95,1.5,NE,20.7,-,0.04,Snow,Light Snow,50,2013-02-21 21:54:00
4:24 PM,21.2,17.6,86,29.88,3.0,NE,20.7,26.5,0.00,Snow,Light Snow,50,2013-02-21 22:24:00
4:54 PM,21.9,17.1,82,29.93,3.0,NE,18.4,-,0.00,,Overcast,50,2013-02-21 22:54:00
5:14 PM,21.2,17.6,86,29.87,2.0,NE,20.7,25.3,0.00,Snow,Light Snow,50,2013-02-21 23:14:00
5:21 PM,21.2,17.6,86,29.87,1.2,NE,21.9,27.6,0.00,Snow,Light Snow,50,2013-02-21 23:21:00
5:32 PM,21.2,17.6,86,29.87,0.8,NE,19.6,-,0.01,Snow,Light Snow,50,2013-02-21 23:32:00
5:39 PM,21.2,17.6,86,29.87,0.2,NE,17.3,25.3,0.01,Fog-Snow,Snow,50,2013-02-21 23:39:00
5:51 PM,21.2,17.6,86,29.87,0.5,NE,16.1,-,0.02,Fog-Snow,Snow,50,2013-02-21 23:51:00
5:54 PM,21.0,18.0,88,29.92,0.5,NE,13.8,-,0.02,Fog-Snow,Snow,50,2013-02-21 23:54:00
6:18 PM,21.2,17.6,86,29.87,1.2,NE,16.1,24.2,0.01,Snow,Light Snow,50,2013-02-22 00:18:00
6:34 PM,21.2,17.6,86,29.87,2.5,NE,15.0,-,0.01,Snow,Light Snow,50,2013-02-22 00:34:00
6:40 PM,21.2,17.6,86,29.87,3.0,NE,15.0,-,0.01,Snow,Light Snow,40,2013-02-22 00:40:00
6:54 PM,21.0,17.1,85,29.93,2.0,NE,13.8,-,0.01,Snow,Light Snow,40,2013-02-22 00:54:00
6:59 PM,21.2,17.6,86,29.87,1.2,NE,13.8,-,0.00,Snow,Light Snow,50,2013-02-22 00:59:00
7:09 PM,21.2,17.6,86,29.87,0.8,NE,12.7,-,0.01,Snow,Light Snow,40,2013-02-22 01:09:00
7:19 PM,19.4,17.6,93,29.87,0.5,NE,13.8,-,0.02,Fog-Snow,Snow,40,2013-02-22 01:19:00
7:49 PM,19.4,17.6,93,29.87,1.0,NNE,12.7,-,0.04,Snow,Light Snow,30,2013-02-22 01:49:00
7:54 PM,19.9,18.0,92,29.92,0.8,NNE,11.5,-,0.05,Snow,Light Snow,30,2013-02-22 01:54:00
8:04 PM,19.4,17.6,93,29.87,1.0,NNE,11.5,-,0.00,Snow,Light Snow,30,2013-02-22 02:04:00
8:14 PM,19.4,17.6,93,29.87,0.5,NNE,11.5,-,0.01,Fog-Snow,Snow,30,2013-02-22 02:14:00
8:26 PM,19.4,17.6,93,29.86,1.0,NNE,11.5,-,0.02,Snow,Light Snow,30,2013-02-22 02:26:00
8:44 PM,19.4,17.6,93,29.86,0.8,NNE,11.5,-,0.03,Snow,Light Snow,30,2013-02-22 02:44:00
8:47 PM,19.4,17.6,93,29.86,1.0,NNE,11.5,-,0.03,Snow,Light Snow,30,2013-02-22 02:47:00
8:54 PM,19.9,18.0,92,29.91,1.0,NNE,12.7,-,0.03,Snow,Light Snow,30,2013-02-22 02:54:00
9:06 PM,19.4,17.6,93,29.86,1.5,NNE,11.5,-,0.00,Snow,Light Snow,20,2013-02-22 03:06:00
9:23 PM,19.4,17.6,93,29.86,2.0,NNE,12.7,-,0.00,Snow,Light Snow,20,2013-02-22 03:23:00
9:42 PM,21.2,17.6,86,29.85,2.5,NNE,11.5,-,0.00,Snow,Light Snow,20,2013-02-22 03:42:00
9:54 PM,21.0,18.0,88,29.91,1.8,NNE,10.4,-,0.02,Snow,Light Snow,20,2013-02-22 03:54:00
10:30 PM,21.2,17.6,86,29.85,2.0,North,10.4,-,0.00,Snow,Light Snow,10,2013-02-22 04:30:00
10:54 PM,21.0,18.0,88,29.91,3.0,NNE,11.5,-,0.00,Snow,Light Snow,20,2013-02-22 04:54:00
11:22 PM,21.2,17.6,86,29.84,2.5,North,12.7,-,0.00,Snow,Light Snow,360,2013-02-22 05:22:00
11:45 PM,21.2,17.6,86,29.84,1.5,North,10.4,-,0.00,Snow,Light Snow,350,2013-02-22 05:45:00
11:54 PM,21.0,18.0,88,29.90,1.5,North,11.5,-,0.00,Snow,Light Snow,350,2013-02-22 05:54:00